TimeEST,TemperatureF,Dew PointF,Humidity,Sea Level PressureIn,VisibilityMPH,Wind Direction,Wind SpeedMPH,Gust SpeedMPH,PrecipitationIn,Events,Conditions,WindDirDegrees,DateUTC
12:52 AM,33.1,21.9,64,30.49,10.0,Calm,Calm,-,N/A,,Clear,0,2013-01-19 05:52:00
1:52 AM,28.0,25.0,88,30.49,10.0,Calm,Calm,-,N/A,,Clear,0,2013-01-19 06:52:00
2:52 AM,28.9,25.0,85,30.49,10.0,Calm,Calm,-,N/A,,Clear,0,2013-01-19 07:52:00
3:52 AM,30.0,25.0,82,30.49,10.0,Calm,Calm,-,N/A,,Clear,0,2013-01-19 08:52:00
4:52 AM,27.0,24.1,89,30.48,10.0,NNW,4.6,-,N/A,,Clear,330,2013-01-19 09:52:00
5:52 AM,27.0,23.0,85,30.48,10.0,North,4.6,-,N/A,,Clear,350,2013-01-19 10:52:00
6:52 AM,25.0,21.9,88,30.48,10.0,North,4.6,-,N/A,,Clear,350,2013-01-19 11:52:00
7:52 AM,26.1,21.9,84,30.48,10.0,North,4.6,-,N/A,,Clear,350,2013-01-19 12:52:00
8:52 AM,36.0,28.9,76,30.48,10.0,Calm,Calm,-,N/A,,Clear,0,2013-01-19 13:52:00
9:52 AM,39.9,26.1,58,30.48,10.0,Variable,3.5,-,N/A,,Clear,0,2013-01-19 14:52:00
10:52 AM,44.1,27.0,51,30.45,10.0,Variable,4.6,-,N/A,,Clear,0,2013-01-19 15:52:00
11:52 AM,46.9,25.0,42,30.41,10.0,Variable,3.5,-,N/A,,Partly Cloudy,0,2013-01-19 16:52:00
12:52 PM,51.1,25.0,36,30.35,10.0,SW,6.9,-,N/A,,Partly Cloudy,220,2013-01-19 17:52:00
1:52 PM,53.1,25.0,34,30.31,10.0,SW,6.9,-,N/A,,Partly Cloudy,220,2013-01-19 18:52:00
2:52 PM,54.0,23.0,30,30.29,10.0,South,9.2,-,N/A,,Scattered Clouds,190,2013-01-19 19:52:00
3:52 PM,53.6,24.8,33,30.25,10.0,South,6.9,-,N/A,,Scattered Clouds,190,2013-01-19 20:52:00
4:52 PM,52.0,26.1,37,30.25,10.0,SSW,5.8,-,N/A,,Scattered Clouds,200,2013-01-19 21:52:00
5:52 PM,46.9,28.0,48,30.24,10.0,SSW,5.8,-,N/A,,Mostly Cloudy,210,2013-01-19 22:52:00
6:52 PM,45.0,28.0,52,30.25,10.0,SSW,4.6,-,N/A,,Mostly Cloudy,200,2013-01-19 23:52:00
7:52 PM,42.1,28.0,58,30.26,10.0,SSW,5.8,-,N/A,,Mostly Cloudy,200,2013-01-20 00:52:00
8:52 PM,42.1,28.9,60,30.25,10.0,South,5.8,-,N/A,,Mostly Cloudy,190,2013-01-20 01:52:00
9:52 PM,39.9,28.9,65,30.22,10.0,Calm,Calm,-,N/A,,Mostly Cloudy,0,2013-01-20 02:52:00
10:52 PM,39.9,28.9,65,30.21,10.0,SW,3.5,-,N/A,,Mostly Cloudy,220,2013-01-20 03:52:00
11:52 PM,37.9,28.0,68,30.18,10.0,Calm,Calm,-,N/A,,Mostly Cloudy,0,2013-01-20 04:52:00